Capitol Logistics 325


KRIV
March Air Reserve Base
Riverside, California, US
KAFW
Fort Worth Alliance Airport
Fort Worth, Texas, US

Activity Log

Date Flight Route Aircraft Duration
No Flights Yet

Route Details

Aircraft Information
Primary: Boeing 767-300BDSF
Backup: Not Available
Route Data
Distance: 1001nm
Sched. Duration: 2h 39m
Avg. Duration: 0h 00m (-240m)
Times Flown: 0
Recm'd Route: TRM J78 ABQ J72 TURKI WESAT2
Planned Altitude: 33,000ft
Origin Wx: KRIV 190758Z AUTO 15003KT 10SM CLR 06/M03 A2974 RMK AO2 SLP065 T00631028 402620011
Dest. Wx: KAFW 190753Z 04016KT 10SM OVC022 14/09 A3009 RMK AO2 SLP186 T01390094 $
Notes:

Financial History
Total Freight: 0lbs
Average Load: 0lbs/flt
Fuel Used: 0lbs
Avg. Fuel Used: 0lbs/flt
Fuel Expense: $0
Avg. Fuel Expense: $0
Avg. Fuel Cost: $0/lbs
Total Gross Income: $0
Pilot Pay: $0
Total Expenses: $0
Total Revenue: $0
Average Revenue: $0